DW0156 Weather Reports


Display with metric or nautical units.
time (UTC)temp
F
wind
direction
speed
MPH
gust
MPH
rain 1hr
in
rain 24hr
in
rain mn
in
humidity
%
barometer
mb
20260510224152 59 263 1.0 5.0 0.00 0.00 0.00 82 1031.1
20260510223641 58 263 0.0 4.0 0.00 0.00 0.00 82 1031.1
20260510223147 58 263 0.0 4.0 0.00 0.00 0.00 83 1031.1
20260510222627 58 263 0.0 4.0 0.00 0.00 0.00 83 1031.0
20260510221504 57 263 1.0 4.0 0.00 0.00 0.00 83 1031.0
20260510221005 57 263 1.0 4.0 0.00 0.00 0.00 83 1030.9
20260510220447 57 263 1.0 7.0 0.00 0.00 0.00 83 1030.9
20260510215931 57 263 2.0 7.0 0.00 0.00 0.00 83 1030.9
20260510215438 57 263 2.0 7.0 0.00 0.00 0.00 83 1030.7
20260510214926 57 263 1.0 7.0 0.00 0.00 0.00 83 1030.7
20260510214431 57 263 1.0 4.0 0.00 0.00 0.00 83 1030.7
20260510213925 57 263 2.0 4.0 0.00 0.00 0.00 83 1030.7
20260510213427 57 263 2.0 9.0 0.00 0.00 0.00 83 1030.7
20260510212935 57 263 3.0 9.0 0.00 0.00 0.00 83 1030.7
20260510212443 57 263 3.0 10.0 0.00 0.00 0.00 83 1030.6
20260510211938 57 263 3.0 10.0 0.00 0.00 0.00 83 1030.6
20260510211434 57 263 4.0 10.0 0.00 0.00 0.00 83 1030.6
20260510210926 57 263 4.0 10.0 0.00 0.00 0.00 83 1030.6
20260510210426 57 263 4.0 10.0 0.00 0.00 0.00 83 1030.6
20260510205907 57 263 4.0 10.0 0.00 0.00 0.00 83 1030.6
20260510205348 56 263 3.0 9.0 0.00 0.00 0.00 83 1030.6
20260510204836 56 263 2.0 8.0 0.00 0.00 0.00 83 1030.6
20260510204326 56 263 0.0 4.0 0.00 0.00 0.00 83 1030.4
20260510203818 56 263 1.0 4.0 0.00 0.00 0.00 83 1030.4
20260510202035 56 263 1.0 5.0 0.00 0.00 0.00 83 1030.2
20260510200912 57 263 2.0 6.0 0.00 0.00 0.00 83 1030.2
20260510200355 57 263 2.0 9.0 0.00 0.00 0.00 83 1030.2
20260510195901 57 263 1.0 9.0 0.00 0.00 0.00 83 1030.1
20260510194101 56 263 1.0 5.0 0.00 0.00 0.00 84 1030.0
20260510192932 56 263 0.0 8.0 0.00 0.00 0.00 84 1030.0
20260510192421 56 263 2.0 8.0 0.00 0.00 0.00 84 1029.7
20260510191904 56 263 2.0 8.0 0.00 0.00 0.00 85 1029.7
20260510191403 56 263 0.0 5.0 0.00 0.00 0.00 85 1029.6
20260510190850 56 263 0.0 2.0 0.00 0.00 0.00 85 1029.6
20260510190353 56 263 1.0 9.0 0.00 0.00 0.00 85 1029.6
20260510184604 55 263 0.0 9.0 0.00 0.00 0.00 87 1029.5
20260510184107 54 263 0.0 2.0 0.00 0.00 0.00 86 1029.5
20260510183549 54 263 0.0 0.0 0.00 0.00 0.00 86 1029.5
20260510183052 54 263 0.0 0.0 0.00 0.00 0.00 86 1029.5
20260510182538 54 263 0.0 0.0 0.00 0.00 0.00 86 1029.3
20260510182018 54 263 0.0 1.0 0.00 0.00 0.00 86 1029.3
20260510181521 54 263 0.0 0.0 0.00 0.00 0.00 85 1029.3
20260510180339 54 263 0.0 0.0 0.00 0.00 0.00 85 1029.3
20260510175831 55 263 0.0 0.0 0.00 0.00 0.00 84 1029.4
20260510175332 55 263 0.0 0.0 0.00 0.00 0.00 84 1029.4
20260510174837 55 263 0.0 0.0 0.00 0.00 0.00 84 1029.4
20260510174336 55 263 0.0 0.0 0.00 0.00 0.00 84 1029.4
20260510171926 55 263 0.0 0.0 0.00 0.00 0.00 83 1029.4
20260510171424 55 263 0.0 0.0 0.00 0.00 0.00 83 1029.4
20260510170916 56 263 0.0 0.0 0.00 0.00 0.00 83 1029.3
20260510170401 56 263 0.0 0.0 0.00 0.00 0.00 83 1029.3
20260510165904 56 263 0.0 0.0 0.00 0.00 0.00 83 1029.5
20260510165351 56 263 0.0 0.0 0.00 0.00 0.00 83 1029.5
20260510164856 56 263 0.0 0.0 0.00 0.00 0.00 83 1029.5
20260510164353 56 263 0.0 0.0 0.00 0.00 0.00 83 1029.5
20260510163836 56 263 0.0 0.0 0.00 0.00 0.00 83 1029.5
20260510163323 56 263 0.0 0.0 0.00 0.00 0.00 83 1029.5
20260510162829 56 263 0.0 0.0 0.00 0.00 0.00 83 1029.6
20260510162317 56 263 0.0 0.0 0.00 0.00 0.00 83 1029.6
20260510161809 56 263 0.0 0.0 0.00 0.00 0.00 83 1029.6
20260510161258 56 263 0.0 0.0 0.00 0.00 0.00 83 1029.8
20260510160801 56 263 0.0 3.0 0.00 0.00 0.00 83 1029.8
20260510160311 56 263 0.0 2.0 0.00 0.00 0.00 83 1029.8
20260510155820 56 263 0.0 0.0 0.00 0.00 0.00 83 1029.8
20260510155322 56 263 0.0 0.0 0.00 0.00 0.00 83 1029.8
20260510154805 56 263 0.0 3.0 0.00 0.00 0.00 83 1029.8
20260510153623 57 263 0.0 2.0 0.00 0.00 0.00 82 1029.9
20260510151858 57 263 2.0 8.0 0.00 0.00 0.00 82 1029.8
20260510151354 57 263 2.0 8.0 0.00 0.00 0.00 82 1029.7
20260510150900 57 263 3.0 12.0 0.00 0.00 0.00 82 1029.7
20260510150345 57 263 3.0 12.0 0.00 0.00 0.00 82 1029.7
20260510145846 57 263 4.0 12.0 0.00 0.00 0.00 81 1029.7
20260510145346 57 263 3.0 12.0 0.00 0.00 0.00 81 1029.7
20260510144828 57 263 2.0 8.0 0.00 0.00 0.00 81 1029.7
20260510143725 57 263 3.0 13.0 0.00 0.00 0.00 81 1029.7
20260510143226 57 263 3.0 13.0 0.00 0.00 0.00 81 1029.7
20260510142729 57 263 3.0 13.0 0.00 0.00 0.00 81 1029.7
20260510142218 57 263 3.0 11.0 0.00 0.00 0.00 81 1029.7
20260510141046 57 263 4.0 11.0 0.00 0.00 0.00 81 1029.9
20260510140532 57 263 4.0 11.0 0.00 0.00 0.00 81 1029.9
20260510140036 57 263 4.0 14.0 0.00 0.00 0.00 81 1029.9
20260510135525 57 263 3.0 14.0 0.00 0.00 0.00 81 1030.0
20260510133705 58 263 4.0 13.0 0.00 0.00 0.00 81 1030.0
20260510132536 57 263 4.0 12.0 0.00 0.00 0.00 81 1030.0
20260510130801 57 263 2.0 7.0 0.00 0.00 0.00 81 1030.1
20260510125639 57 263 3.0 9.0 0.00 0.00 0.00 81 1030.1
20260510124505 57 263 4.0 10.0 0.00 0.00 0.00 81 1030.1
20260510122704 57 263 2.0 10.0 0.00 0.00 0.00 82 1030.2
20260510122204 57 263 1.0 9.0 0.00 0.00 0.00 82 1030.2
20260510121106 57 263 3.0 12.0 0.00 0.00 0.00 82 1030.1
20260510120559 58 263 3.0 12.0 0.00 0.00 0.00 81 1030.1
20260510120041 58 263 3.0 12.0 0.00 0.00 0.00 82 1030.1
20260510115528 58 263 4.0 12.0 0.00 0.00 0.00 82 1030.0
20260510115034 57 263 4.0 11.0 0.00 0.00 0.00 82 1030.0
20260510114531 57 263 3.0 11.0 0.00 0.00 0.00 82 1030.0
20260510114031 57 263 3.0 8.0 0.00 0.00 0.00 82 1030.0
20260510113531 57 263 3.0 8.0 0.00 0.00 0.00 82 1030.0
20260510113034 57 263 1.0 6.0 0.00 0.00 0.00 82 1030.0
20260510112527 57 263 0.0 6.0 0.00 0.00 0.00 82 1029.9
20260510111353 57 263 1.0 9.0 0.00 0.00 0.00 82 1029.9
20260510110216 57 263 1.0 5.0 0.00 0.00 0.00 81 1029.9
20260510105713 57 263 0.0 5.0 0.00 0.00 0.00 81 1030.0
20260510105154 58 263 0.0 5.0 0.00 0.00 0.00 80 1030.0
20260510104703 58 263 0.0 0.0 0.00 0.00 0.00 80 1030.0
20260510104155 58 263 0.0 0.0 0.00 0.00 0.00 80 1030.1
20260510103651 58 263 0.0 0.0 0.00 0.00 0.00 80 1030.1
20260510101920 59 263 0.0 2.0 0.00 0.00 0.00 79 1030.0
20260510101411 59 263 0.0 0.0 0.00 0.00 0.00 79 1030.0
20260510100853 59 263 0.0 2.0 0.00 0.00 0.00 79 1030.1
20260510100334 59 263 0.0 1.0 0.00 0.00 0.00 79 1030.1
20260510095825 59 263 0.0 0.0 0.00 0.00 0.00 79 1029.9
20260510095307 59 263 0.0 0.0 0.00 0.00 0.00 78 1029.9
20260510094756 59 263 0.0 0.0 0.00 0.00 0.00 78 1029.9
20260510094302 59 263 0.0 0.0 0.00 0.00 0.00 78 1029.7
20260510093743 59 263 0.0 0.0 0.00 0.00 0.00 77 1029.7
20260510092614 59 263 0.0 1.0 0.00 0.00 0.00 76 1029.6
20260510092112 59 263 0.0 1.0 0.00 0.00 0.00 75 1029.6
20260510091556 59 263 0.0 1.0 0.00 0.00 0.00 75 1029.6
20260510090409 59 263 0.0 0.0 0.00 0.00 0.00 74 1029.6
20260510085901 59 263 0.0 0.0 0.00 0.00 0.00 73 1029.5
20260510085356 59 263 0.0 0.0 0.00 0.00 0.00 73 1029.5
20260510084904 59 263 0.0 1.0 0.00 0.00 0.00 73 1029.5
20260510084411 59 263 0.0 1.0 0.00 0.00 0.00 73 1029.5
20260510083906 59 263 0.0 1.0 0.00 0.00 0.00 72 1029.3
20260510083412 59 263 0.0 0.0 0.00 0.00 0.00 72 1029.3
20260510082853 59 263 0.0 0.0 0.00 0.00 0.00 72 1029.1
20260510082348 60 263 0.0 0.0 0.00 0.00 0.00 72 1029.1
20260510081858 60 263 0.0 0.0 0.00 0.00 0.00 71 1029.1
20260510081350 60 263 0.0 0.0 0.00 0.00 0.00 71 1029.0
20260510080229 60 263 0.0 0.0 0.00 0.00 0.00 70 1029.0
20260510075102 60 263 0.0 0.0 0.00 0.00 0.00 70 1028.9
20260510074610 61 263 0.0 1.0 0.00 0.00 0.00 69 1028.9
20260510074105 61 263 0.0 0.0 0.00 0.00 0.00 69 1028.7
20260510073613 61 263 0.0 0.0 0.00 0.00 0.00 69 1028.7
20260510073113 61 263 0.0 0.0 0.00 0.00 0.00 68 1028.7
20260510072614 61 263 1.0 3.0 0.00 0.00 0.00 68 1028.7
20260510072104 61 263 2.0 3.0 0.00 0.00 0.00 68 1028.7
20260510070940 62 263 1.0 5.0 0.00 0.00 0.00 67 1028.8
20260510070446 62 263 2.0 6.0 0.00 0.00 0.00 67 1028.8
20260510065321 62 263 3.0 6.0 0.00 0.00 0.00 66 1028.6
20260510064802 63 263 2.0 6.0 0.00 0.00 0.00 66 1028.6
20260510064311 63 263 2.0 5.0 0.00 0.00 0.00 65 1028.5
20260510063813 63 263 2.0 4.0 0.00 0.00 0.00 65 1028.5
20260510062032 63 263 2.0 5.0 0.00 0.00 0.00 64 1028.5
20260510061520 63 263 2.0 5.0 0.00 0.00 0.00 64 1028.5
20260510061027 64 263 3.0 6.0 0.00 0.00 0.00 63 1028.5
20260510055901 64 263 2.0 8.0 0.00 0.00 0.00 62 1028.4
20260510055403 64 263 2.0 8.0 0.00 0.00 0.00 61 1028.4
20260510054847 65 263 3.0 8.0 0.00 0.00 0.00 61 1028.4
20260510053728 65 263 2.0 7.0 0.00 0.00 0.00 61 1028.4
20260510053228 65 263 3.0 7.0 0.00 0.00 0.00 61 1028.4
20260510052716 65 263 3.0 7.0 0.00 0.00 0.00 61 1028.4
20260510052213 65 263 3.0 6.0 0.00 0.00 0.00 62 1028.4
20260510051654 64 263 2.0 6.0 0.00 0.00 0.00 61 1028.4
20260510050516 64 263 1.0 5.0 0.00 0.00 0.00 62 1028.4
20260510050006 64 263 2.0 5.0 0.00 0.00 0.00 62 1028.4
20260510045456 64 263 2.0 5.0 0.00 0.00 0.00 61 1028.5
20260510044338 65 263 0.0 2.0 0.00 0.00 0.00 62 1028.5
20260510043835 65 263 0.0 4.0 0.00 0.00 0.00 62 1028.5
20260510043335 65 263 0.0 4.0 0.00 0.00 0.00 61 1028.5
20260510042819 65 263 2.0 6.0 0.00 0.00 0.00 60 1028.5
20260510041633 65 263 1.0 6.0 0.00 0.00 0.00 61 1028.5
20260510041127 65 263 0.0 4.0 0.00 0.00 0.00 61 1028.5
20260510040628 65 263 0.0 2.0 0.00 0.00 0.00 61 1028.5
20260510040136 65 263 0.0 0.0 0.00 0.00 0.00 61 1028.5
20260510035632 64 263 1.0 4.0 0.00 0.00 0.00 61 1028.6
20260510035130 65 263 0.0 3.0 0.00 0.00 0.00 61 1028.6
20260510034631 65 263 0.0 1.0 0.00 0.00 0.00 62 1028.6
20260510034123 64 263 0.0 3.0 0.00 0.00 0.00 61 1028.9
20260510033618 64 263 0.0 3.0 0.00 0.00 0.00 61 1028.9
20260510032456 64 263 2.0 4.0 0.00 0.00 0.00 61 1029.0
20260510032006 64 263 1.0 4.0 0.00 0.00 0.00 61 1029.0
20260510031503 65 263 0.0 3.0 0.00 0.00 0.00 61 1029.0
20260510030956 65 263 0.0 2.0 0.00 0.00 0.00 60 1029.1
20260510030447 65 263 0.0 3.0 0.00 0.00 0.00 61 1029.1
20260510025323 65 263 0.0 3.0 0.00 0.00 0.00 61 1029.4
20260510024833 65 263 0.0 3.0 0.00 0.00 0.00 60 1029.4
20260510024328 65 263 0.0 4.0 0.00 0.00 0.00 61 1029.5
20260510023828 65 263 0.0 4.0 0.00 0.00 0.00 61 1029.5
20260510023317 65 263 0.0 4.0 0.00 0.00 0.00 61 1029.5
20260510022812 65 263 0.0 4.0 0.00 0.00 0.00 61 1029.8
20260510022317 64 263 0.0 2.0 0.00 0.00 0.00 62 1029.8
20260510021807 64 263 0.0 2.0 0.00 0.00 0.00 62 1029.8
20260510021309 64 263 0.0 0.0 0.00 0.00 0.00 62 1030.1
20260510020753 63 263 0.0 3.0 0.00 0.00 0.00 63 1030.1
20260510020253 63 263 0.0 3.0 0.00 0.00 0.00 64 1030.1
20260510015749 63 263 0.0 3.0 0.00 0.00 0.00 63 1030.2
20260510015240 63 263 0.0 2.0 0.00 0.00 0.00 64 1030.2
20260510014740 63 263 0.0 0.0 0.00 0.00 0.00 64 1030.2
20260510014234 63 263 0.0 2.0 0.00 0.00 0.00 65 1030.2
20260510013737 62 263 0.0 2.0 0.00 0.00 0.00 65 1030.2
20260510013230 62 263 0.0 3.0 0.00 0.00 0.00 65 1030.2
20260510012716 62 263 0.0 3.0 0.00 0.00 0.00 65 1030.2
20260510012205 62 263 0.0 3.0 0.00 0.00 0.00 65 1030.2
20260510011710 62 263 0.0 2.0 0.00 0.00 0.00 66 1030.2
20260510011212 62 263 0.0 2.0 0.00 0.00 0.00 67 1030.3
20260510010701 62 263 0.0 2.0 0.00 0.00 0.00 67 1030.3
20260510010156 62 263 0.0 2.0 0.00 0.00 0.00 68 1030.3
20260510005659 61 263 0.0 0.0 0.00 0.00 0.00 69 1030.2
20260510003915 61 263 0.0 3.0 0.00 0.00 0.00 71 1030.3
20260510002753 60 263 1.0 3.0 0.00 0.00 0.00 71 1030.3
20260510002243 60 263 0.0 3.0 0.00 0.00 0.00 71 1030.3
20260510001729 60 263 0.0 3.0 0.00 0.00 0.00 72 1030.3
20260510001222 60 263 0.0 0.0 0.00 0.00 0.00 72 1030.4
20260510000705 60 263 1.0 3.0 0.00 0.00 0.00 72 1030.4
20260510000200 60 263 1.0 6.0 0.00 0.00 0.00 72 1030.4
20260509235656 60 263 2.0 7.0 0.00 0.00 0.00 72 1030.4
20260509235200 59 263 2.0 7.0 0.00 0.00 0.00 72 1030.4
20260509234659 59 263 2.0 7.0 0.00 0.00 0.00 73 1030.4
20260509234206 59 263 2.0 7.0 0.00 0.00 0.00 73 1030.4
20260509233650 59 263 2.0 6.0 0.00 0.00 0.00 75 1030.4
20260509233134 59 263 2.0 8.0 0.00 0.00 0.00 75 1030.4
20260509232614 59 263 2.0 8.0 0.00 0.00 0.00 76 1030.3
20260509232111 58 263 3.0 9.0 0.00 0.00 0.00 77 1030.3
20260509231617 58 263 3.0 9.0 0.00 0.00 0.00 77 1030.3
20260509231125 58 263 2.0 9.0 0.00 0.00 0.00 79 1030.1
20260509230613 58 263 3.0 9.0 0.00 0.00 0.00 80 1030.1
20260509230120 57 263 2.0 5.0 0.00 0.00 0.00 82 1030.1
20260509225626 57 263 2.0 5.0 0.00 0.00 0.00 84 1030.1
20260509225109 57 263 3.0 5.0 0.00 0.00 0.00 85 1030.1